User: anonymous   Login
Location: Salamanca
(40.9670°N, 5.6500°W)
Time: 04:44:28
(UTC+02:00)
Language:

Cosmos 1633 Rocket - Orbit

View from above orbital plane
View from above orbital plane
View from above satellite
View from above satellite

Ground track
Ground track

The orbit data is extracted from the following two-line orbital elements,

1 15593U 85020B   16237.81773775  .00000101  00000-0  92740-5 0  9991
2 15593  82.5397 179.9801 0010327 303.4496  86.4842 14.84224971700412
Epoch (UTC): 24 August 2016 19:37:32
Eccentricity: 0.0010327
inclination: 82.5397°
perigee height: 609 km
apogee height: 623 km
right ascension of ascending node: 179.9801°
argument of perigee: 303.4496°
revolutions per day: 14.84224971
mean anomaly at epoch: 86.4842°
orbit number at epoch: 70041

The dashed part of the orbit path shows where the satellite is in the earth's shadow,  

DLR